JES3156 SAEZ-SARI

Flight info

Callsign JES3156
Flight time 1h 30m
Altitude 37000
Route LANDA1E LANDA UN785 GEMSU UT667 NAIDE NAIDE2Q
Aircraft A320/M-SDGIRWYZ/EB1

Departure

Time 2026-04-26 14:57
Airport Ezeiza International Airport - Ministro Pistarini (SAEZ)

Arrival

Time 2026-04-26 16:27
Airport Cataratas Del Iguazú International Airport (SARI)
Time Latitude Longitude Altitude Speed Heading
2026-04-26 14:35 -34.81639 -58.54357 75 ft 0 kts 11°
2026-04-26 14:45 -34.81640 -58.54357 75 ft 2 kts 11°
2026-04-26 14:46 -34.81666 -58.54363 66 ft 4 kts 12°
2026-04-26 14:46 -34.81692 -58.54371 65 ft 4 kts 13°
2026-04-26 14:46 -34.81718 -58.54379 68 ft 4 kts 21°
2026-04-26 14:46 -34.81742 -58.54393 73 ft 4 kts 37°
2026-04-26 14:47 -34.81758 -58.54416 68 ft 4 kts 86°
2026-04-26 14:47 -34.81758 -58.54428 65 ft 0 kts 96°
2026-04-26 14:49 -34.81758 -58.54426 65 ft 1 kts 95°
2026-04-26 14:49 -34.81760 -58.54407 71 ft 4 kts 95°
2026-04-26 14:49 -34.81764 -58.54361 74 ft 7 kts 97°
2026-04-26 14:49 -34.81773 -58.54283 73 ft 11 kts 98°
2026-04-26 14:50 -34.81783 -58.54183 72 ft 13 kts 100°
2026-04-26 14:50 -34.81792 -58.54069 67 ft 14 kts 85°
2026-04-26 14:50 -34.81751 -58.53954 64 ft 16 kts 59°
2026-04-26 14:50 -34.81700 -58.53830 69 ft 17 kts 80°
2026-04-26 14:51 -34.81759 -58.53713 72 ft 18 kts 152°
2026-04-26 14:51 -34.81877 -58.53644 69 ft 19 kts 146°
2026-04-26 14:51 -34.81924 -58.53531 70 ft 16 kts 102°
2026-04-26 14:51 -34.81952 -58.53393 67 ft 18 kts 104°
2026-04-26 14:52 -34.81982 -58.53243 66 ft 19 kts 104°
2026-04-26 14:52 -34.82013 -58.53088 71 ft 18 kts 104°
2026-04-26 14:52 -34.82041 -58.52949 85 ft 16 kts 104°
2026-04-26 14:52 -34.82069 -58.52811 72 ft 18 kts 103°
2026-04-26 14:53 -34.82099 -58.52656 71 ft 20 kts 103°
2026-04-26 14:53 -34.82130 -58.52499 70 ft 19 kts 103°
2026-04-26 14:53 -34.82163 -58.52336 75 ft 20 kts 105°
2026-04-26 14:53 -34.82190 -58.52204 74 ft 16 kts 103°
2026-04-26 14:54 -34.82217 -58.52066 75 ft 16 kts 103°
2026-04-26 14:54 -34.82242 -58.51943 68 ft 15 kts 104°
2026-04-26 14:54 -34.82262 -58.51841 75 ft 11 kts 103°
2026-04-26 14:54 -34.82305 -58.51774 70 ft 8 kts 164°
2026-04-26 14:55 -34.82361 -58.51794 68 ft 9 kts 200°
2026-04-26 14:55 -34.82421 -58.51814 76 ft 9 kts 193°
2026-04-26 14:55 -34.82475 -58.51833 81 ft 7 kts 206°
2026-04-26 14:55 -34.82510 -58.51876 87 ft 10 kts 238°
2026-04-26 14:56 -34.82508 -58.51982 82 ft 14 kts 284°
2026-04-26 14:56 -34.82462 -58.52238 80 ft 61 kts 283°
2026-04-26 14:56 -34.82329 -58.52980 85 ft 115 kts 282°
2026-04-26 14:56 -34.82137 -58.54092 129 ft 152 kts 281°
2026-04-26 14:57 -34.81927 -58.55364 713 ft 151 kts 281°
2026-04-26 14:57 -34.81707 -58.56599 1381 ft 149 kts 279°
2026-04-26 14:57 -34.81498 -58.57848 1971 ft 152 kts 276°
2026-04-26 14:57 -34.81194 -58.59064 2677 ft 153 kts 293°
2026-04-26 14:58 -34.80385 -58.59989 3234 ft 173 kts 323°
2026-04-26 14:58 -34.79073 -58.60272 3510 ft 211 kts 350°
2026-04-26 14:58 -34.77529 -58.60252 3791 ft 233 kts 352°
2026-04-26 14:58 -34.75820 -58.60202 4112 ft 258 kts 353°
2026-04-26 14:59 -34.73973 -58.60136 4806 ft 270 kts 353°
2026-04-26 14:59 -34.72088 -58.60056 5758 ft 271 kts 352°
2026-04-26 14:59 -34.70206 -58.59975 6724 ft 270 kts 352°
2026-04-26 14:59 -34.68962 -58.59924 7334 ft 270 kts 351°
2026-04-26 15:00 -34.66440 -58.59830 8525 ft 272 kts 351°
2026-04-26 15:00 -34.64543 -58.59766 9437 ft 273 kts 350°
2026-04-26 15:00 -34.62634 -58.59705 10259 ft 278 kts 349°
2026-04-26 15:00 -34.60624 -58.59661 10523 ft 301 kts 350°
2026-04-26 15:01 -34.58468 -58.59616 10940 ft 316 kts 351°
2026-04-26 15:01 -34.56243 -58.59550 11643 ft 322 kts 351°
2026-04-26 15:01 -34.53989 -58.59473 12391 ft 327 kts 350°
2026-04-26 15:01 -34.51704 -58.59393 13156 ft 331 kts 350°
2026-04-26 15:02 -34.49386 -58.59315 13880 ft 335 kts 349°
2026-04-26 15:02 -34.47036 -58.59242 14529 ft 340 kts 348°
2026-04-26 15:02 -34.44659 -58.59173 15152 ft 345 kts 348°
2026-04-26 15:02 -34.42243 -58.59104 15765 ft 350 kts 347°
2026-04-26 15:03 -34.39792 -58.59035 16400 ft 355 kts 347°
2026-04-26 15:03 -34.37305 -58.58961 17031 ft 360 kts 346°
2026-04-26 15:03 -34.34791 -58.58885 17647 ft 364 kts 346°
2026-04-26 15:03 -34.32243 -58.58810 18258 ft 369 kts 345°
2026-04-26 15:04 -34.29661 -58.58734 18827 ft 374 kts 346°
2026-04-26 15:04 -34.27038 -58.58651 19433 ft 377 kts 346°
2026-04-26 15:04 -34.24408 -58.58565 20066 ft 381 kts 346°
2026-04-26 15:04 -34.21748 -58.58478 20687 ft 384 kts 347°
2026-04-26 15:05 -34.19066 -58.58391 21283 ft 387 kts 347°
2026-04-26 15:05 -34.18157 -58.58363 21483 ft 388 kts 347°
2026-04-26 15:05 -34.13645 -58.58231 22422 ft 393 kts 347°
2026-04-26 15:05 -34.10897 -58.58155 22990 ft 397 kts 347°
2026-04-26 15:06 -34.08129 -58.58074 23540 ft 400 kts 347°
2026-04-26 15:06 -34.05330 -58.57987 24037 ft 404 kts 347°
2026-04-26 15:06 -34.02508 -58.57899 24528 ft 407 kts 347°
2026-04-26 15:06 -33.99674 -58.57813 25035 ft 409 kts 348°
2026-04-26 15:07 -33.93946 -58.57640 26046 ft 414 kts 348°
2026-04-26 15:07 -33.91051 -58.57552 26545 ft 417 kts 348°
2026-04-26 15:07 -33.88153 -58.57536 27041 ft 416 kts 346°
2026-04-26 15:08 -33.85265 -58.57626 27536 ft 416 kts 345°
2026-04-26 15:08 -33.82367 -58.57780 28022 ft 417 kts 344°
2026-04-26 15:08 -33.79458 -58.57958 28518 ft 419 kts 344°
2026-04-26 15:08 -33.76536 -58.58135 28997 ft 422 kts 345°
2026-04-26 15:09 -33.73596 -58.58297 29452 ft 425 kts 345°
2026-04-26 15:09 -33.70632 -58.58443 29909 ft 427 kts 345°
2026-04-26 15:09 -33.68656 -58.58532 30168 ft 429 kts 346°
2026-04-26 15:09 -33.64670 -58.58691 30793 ft 428 kts 345°
2026-04-26 15:10 -33.62699 -58.58765 31145 ft 426 kts 345°
2026-04-26 15:10 -33.60703 -58.58841 31483 ft 425 kts 345°
2026-04-26 15:10 -33.56802 -58.58997 32155 ft 422 kts 345°
2026-04-26 15:10 -33.53876 -58.59121 32645 ft 420 kts 344°
2026-04-26 15:11 -33.50955 -58.59248 33134 ft 419 kts 344°
2026-04-26 15:11 -33.48049 -58.59374 33615 ft 418 kts 343°
2026-04-26 15:11 -33.45146 -58.59503 34073 ft 416 kts 343°
2026-04-26 15:11 -33.42251 -58.59635 34459 ft 416 kts 343°
2026-04-26 15:12 -33.39365 -58.59767 34838 ft 415 kts 343°
2026-04-26 15:12 -33.36474 -58.59896 35199 ft 415 kts 343°
2026-04-26 15:12 -33.33589 -58.60020 35549 ft 415 kts 343°
2026-04-26 15:12 -33.30661 -58.60141 35913 ft 415 kts 343°
2026-04-26 15:13 -33.27811 -58.60258 36247 ft 415 kts 343°
2026-04-26 15:13 -33.24927 -58.60380 36579 ft 414 kts 343°
2026-04-26 15:13 -33.22051 -58.60506 36847 ft 415 kts 343°
2026-04-26 15:13 -33.19162 -58.60637 36903 ft 416 kts 343°
2026-04-26 15:14 -33.13323 -58.60893 36896 ft 418 kts 343°
2026-04-26 15:14 -33.07508 -58.61139 36886 ft 418 kts 343°
2026-04-26 15:15 -33.01668 -58.61256 36891 ft 430 kts 351°
2026-04-26 15:15 -32.98690 -58.60615 36890 ft 452 kts
2026-04-26 15:15 -32.95624 -58.59513 36887 ft 455 kts
2026-04-26 15:16 -32.89576 -58.57270 36886 ft 456 kts
2026-04-26 15:16 -32.83524 -58.55023 36899 ft 455 kts
2026-04-26 15:17 -32.78490 -58.53184 36911 ft 455 kts
2026-04-26 15:17 -32.71420 -58.50627 36928 ft 454 kts
2026-04-26 15:18 -32.65375 -58.48442 36945 ft 454 kts
2026-04-26 15:18 -32.59333 -58.46243 36945 ft 454 kts
2026-04-26 15:19 -32.53304 -58.44052 36948 ft 453 kts
2026-04-26 15:19 -32.47285 -58.41871 36952 ft 452 kts
2026-04-26 15:20 -32.41272 -58.39690 36953 ft 451 kts
2026-04-26 15:20 -32.35269 -58.37521 36956 ft 451 kts
2026-04-26 15:21 -32.29272 -58.35363 36955 ft 450 kts
2026-04-26 15:21 -32.23279 -58.33210 36957 ft 450 kts
2026-04-26 15:22 -32.17293 -58.31057 36955 ft 450 kts
2026-04-26 15:22 -32.11313 -58.28910 36959 ft 449 kts
2026-04-26 15:23 -32.05330 -58.26770 36956 ft 449 kts
2026-04-26 15:23 -31.99364 -58.24626 36959 ft 449 kts
2026-04-26 15:24 -31.93394 -58.22486 36954 ft 448 kts
2026-04-26 15:24 -31.87438 -58.20357 36958 ft 448 kts
2026-04-26 15:25 -31.82475 -58.18587 36953 ft 448 kts
2026-04-26 15:25 -31.75512 -58.16098 36954 ft 447 kts
2026-04-26 15:26 -31.69555 -58.13977 36953 ft 447 kts
2026-04-26 15:26 -31.63597 -58.11862 36951 ft 447 kts
2026-04-26 15:27 -31.57643 -58.09753 36944 ft 447 kts
2026-04-26 15:27 -31.51699 -58.07646 36932 ft 447 kts
2026-04-26 15:28 -31.45747 -58.05546 36933 ft 447 kts
2026-04-26 15:28 -31.39797 -58.03449 36938 ft 447 kts
2026-04-26 15:29 -31.33847 -58.01334 36970 ft 447 kts
2026-04-26 15:30 -31.21951 -57.97140 36970 ft 446 kts 360°
2026-04-26 15:30 -31.16007 -57.95055 36970 ft 446 kts 360°
2026-04-26 15:31 -31.07112 -57.91924 36959 ft 445 kts 360°
2026-04-26 15:32 -30.99181 -57.89139 36969 ft 444 kts 359°
2026-04-26 15:32 -30.92308 -57.86742 36966 ft 444 kts 359°
2026-04-26 15:33 -30.86401 -57.84680 36962 ft 443 kts 359°
2026-04-26 15:33 -30.80494 -57.82618 36965 ft 443 kts 359°
2026-04-26 15:34 -30.74604 -57.80564 36969 ft 442 kts 359°
2026-04-26 15:34 -30.68708 -57.78513 36966 ft 442 kts 359°
2026-04-26 15:35 -30.62823 -57.76466 36960 ft 442 kts 359°
2026-04-26 15:35 -30.56898 -57.74384 36958 ft 442 kts 359°
2026-04-26 15:36 -30.51022 -57.72323 36953 ft 441 kts 359°
2026-04-26 15:36 -30.45178 -57.70274 36952 ft 441 kts 359°
2026-04-26 15:37 -30.39304 -57.68222 36954 ft 441 kts 359°
2026-04-26 15:37 -30.33391 -57.66161 36952 ft 441 kts 359°
2026-04-26 15:38 -30.27519 -57.64019 36953 ft 455 kts
2026-04-26 15:38 -30.24647 -57.62254 36951 ft 480 kts 18°
2026-04-26 15:38 -30.21878 -57.60066 36952 ft 484 kts 19°
2026-04-26 15:39 -30.16340 -57.55634 36956 ft 485 kts 19°
2026-04-26 15:39 -30.11726 -57.51946 36956 ft 485 kts 19°
2026-04-26 15:40 -30.05238 -57.46788 36945 ft 484 kts 19°
2026-04-26 15:40 -29.99688 -57.42376 36945 ft 485 kts 19°
2026-04-26 15:41 -29.94139 -57.37967 36949 ft 484 kts 19°
2026-04-26 15:41 -29.88583 -57.33580 36952 ft 484 kts 19°
2026-04-26 15:42 -29.83025 -57.29200 36961 ft 484 kts 19°
2026-04-26 15:42 -29.77462 -57.24809 36965 ft 484 kts 19°
2026-04-26 15:43 -29.71906 -57.20429 36962 ft 484 kts 19°
2026-04-26 15:44 -29.63565 -57.13877 36962 ft 484 kts 19°
2026-04-26 15:44 -29.55230 -57.07336 36962 ft 484 kts 19°
2026-04-26 15:45 -29.46883 -57.00796 36960 ft 484 kts 19°
2026-04-26 15:46 -29.38533 -56.94274 36959 ft 484 kts 19°
2026-04-26 15:46 -29.34812 -56.91370 36955 ft 484 kts 19°
2026-04-26 15:47 -29.25565 -56.84166 36953 ft 484 kts 19°
2026-04-26 15:48 -29.20001 -56.79834 36954 ft 484 kts 19°
2026-04-26 15:48 -29.14431 -56.75505 36962 ft 484 kts 19°
2026-04-26 15:49 -29.08845 -56.71181 36963 ft 490 kts 19°
2026-04-26 15:49 -29.03230 -56.66831 36960 ft 485 kts 20°
2026-04-26 15:50 -28.97661 -56.62509 36961 ft 483 kts 20°
2026-04-26 15:50 -28.92110 -56.58216 36960 ft 482 kts 20°
2026-04-26 15:51 -28.86545 -56.53928 36955 ft 482 kts 20°
2026-04-26 15:51 -28.80983 -56.49660 36952 ft 482 kts 20°
2026-04-26 15:52 -28.75421 -56.45380 36949 ft 482 kts 20°
2026-04-26 15:52 -28.69857 -56.41093 36946 ft 482 kts 20°
2026-04-26 15:53 -28.64298 -56.36823 36947 ft 482 kts 20°
2026-04-26 15:53 -28.58739 -56.32565 36948 ft 482 kts 20°
2026-04-26 15:54 -28.53178 -56.28316 36953 ft 481 kts 20°
2026-04-26 15:54 -28.47623 -56.24066 36956 ft 481 kts 20°
2026-04-26 15:55 -28.42066 -56.19823 36960 ft 481 kts 20°
2026-04-26 15:55 -28.36514 -56.15587 36957 ft 481 kts 20°
2026-04-26 15:56 -28.30965 -56.11361 36958 ft 480 kts 20°
2026-04-26 15:56 -28.25411 -56.07141 36953 ft 480 kts 20°
2026-04-26 15:57 -28.19877 -56.02938 36958 ft 480 kts 20°
2026-04-26 15:57 -28.14297 -55.98703 36957 ft 479 kts 20°
2026-04-26 15:58 -28.08756 -55.94515 36955 ft 479 kts 21°
2026-04-26 15:58 -28.03212 -55.90318 36959 ft 479 kts 21°
2026-04-26 15:59 -27.97680 -55.86122 36961 ft 479 kts 21°
2026-04-26 15:59 -27.92150 -55.81939 36959 ft 478 kts 21°
2026-04-26 16:00 -27.86616 -55.77766 36967 ft 478 kts 21°
2026-04-26 16:00 -27.81084 -55.73614 36964 ft 477 kts 21°
2026-04-26 16:01 -27.75558 -55.69470 36962 ft 477 kts 21°
2026-04-26 16:01 -27.70039 -55.65313 36960 ft 477 kts 21°
2026-04-26 16:02 -27.64541 -55.61137 36955 ft 482 kts 26°
2026-04-26 16:02 -27.62006 -55.58569 36956 ft 499 kts 37°
2026-04-26 16:02 -27.59876 -55.55404 36957 ft 515 kts 51°
2026-04-26 16:03 -27.56574 -55.48152 36961 ft 521 kts 55°
2026-04-26 16:03 -27.53328 -55.40857 36956 ft 521 kts 55°
2026-04-26 16:04 -27.50058 -55.33585 36955 ft 520 kts 55°
2026-04-26 16:04 -27.48421 -55.29952 36778 ft 520 kts 55°
2026-04-26 16:04 -27.46776 -55.26314 36084 ft 525 kts 55°
2026-04-26 16:04 -27.45107 -55.22628 35509 ft 528 kts 55°
2026-04-26 16:05 -27.43444 -55.18943 34974 ft 529 kts 55°
2026-04-26 16:05 -27.41778 -55.15246 34393 ft 531 kts 55°
2026-04-26 16:05 -27.40115 -55.11553 33791 ft 525 kts 55°
2026-04-26 16:05 -27.38487 -55.07925 33213 ft 517 kts 55°
2026-04-26 16:06 -27.36862 -55.04314 32632 ft 517 kts 55°
2026-04-26 16:06 -27.35020 -55.00907 32168 ft 502 kts 43°
2026-04-26 16:06 -27.32753 -54.98033 31835 ft 482 kts 32°
2026-04-26 16:06 -27.30208 -54.95709 31149 ft 461 kts 22°
2026-04-26 16:07 -27.27562 -54.93752 30626 ft 448 kts 21°
2026-04-26 16:07 -27.24993 -54.91858 30210 ft 437 kts 21°
2026-04-26 16:07 -27.22451 -54.89998 29736 ft 436 kts 21°
2026-04-26 16:07 -27.19912 -54.88148 29319 ft 433 kts 21°
2026-04-26 16:08 -27.17393 -54.86308 28895 ft 431 kts 22°
2026-04-26 16:08 -27.15732 -54.85092 28634 ft 429 kts 22°
2026-04-26 16:08 -27.12400 -54.82645 28098 ft 427 kts 22°
2026-04-26 16:08 -27.09924 -54.80821 27688 ft 425 kts 22°
2026-04-26 16:09 -27.07457 -54.79004 27262 ft 424 kts 22°
2026-04-26 16:09 -27.05000 -54.77198 26850 ft 422 kts 22°
2026-04-26 16:09 -27.02533 -54.75411 26402 ft 421 kts 22°
2026-04-26 16:09 -27.00058 -54.73626 25913 ft 425 kts 23°
2026-04-26 16:10 -26.97612 -54.71787 25565 ft 422 kts 24°
2026-04-26 16:10 -26.95161 -54.69967 25183 ft 421 kts 23°
2026-04-26 16:10 -26.92710 -54.68175 24742 ft 420 kts 23°
2026-04-26 16:10 -26.90272 -54.66405 24275 ft 413 kts 23°
2026-04-26 16:11 -26.87888 -54.64669 23854 ft 408 kts 23°
2026-04-26 16:11 -26.85500 -54.62936 23366 ft 410 kts 24°
2026-04-26 16:11 -26.83107 -54.61200 22882 ft 409 kts 24°
2026-04-26 16:11 -26.80722 -54.59462 22424 ft 408 kts 25°
2026-04-26 16:12 -26.78349 -54.57729 21970 ft 406 kts 25°
2026-04-26 16:12 -26.75984 -54.56005 21509 ft 405 kts 25°
2026-04-26 16:12 -26.71307 -54.52612 20791 ft 393 kts 22°
2026-04-26 16:13 -26.68883 -54.51382 20128 ft 375 kts 10°
2026-04-26 16:13 -26.66438 -54.50477 19616 ft 365 kts 11°
2026-04-26 16:13 -26.64066 -54.49599 19164 ft 354 kts 11°
2026-04-26 16:13 -26.61753 -54.48741 18730 ft 345 kts 11°
2026-04-26 16:14 -26.59484 -54.47900 18300 ft 344 kts 12°
2026-04-26 16:14 -26.57206 -54.47061 17820 ft 346 kts 12°
2026-04-26 16:14 -26.52629 -54.45368 16942 ft 346 kts 12°
2026-04-26 16:15 -26.50343 -54.44518 16506 ft 346 kts 12°
2026-04-26 16:15 -26.48053 -54.43666 16071 ft 347 kts 12°
2026-04-26 16:15 -26.45766 -54.42814 15639 ft 347 kts 12°
2026-04-26 16:16 -26.41174 -54.41108 14812 ft 347 kts 12°
2026-04-26 16:16 -26.38892 -54.40258 14407 ft 346 kts 12°
2026-04-26 16:16 -26.36630 -54.39417 14079 ft 339 kts 12°
2026-04-26 16:16 -26.34399 -54.38587 13438 ft 335 kts 12°
2026-04-26 16:17 -26.32222 -54.37778 13006 ft 324 kts 12°
2026-04-26 16:17 -26.30110 -54.36992 12609 ft 320 kts 12°
2026-04-26 16:17 -26.27984 -54.36210 12197 ft 322 kts 12°
2026-04-26 16:17 -26.25848 -54.35432 11783 ft 323 kts 10°
2026-04-26 16:18 -26.23667 -54.35021 11364 ft 316 kts 357°
2026-04-26 16:18 -26.19255 -54.34717 10537 ft 319 kts 358°
2026-04-26 16:19 -26.14898 -54.34406 10202 ft 305 kts 358°
2026-04-26 16:19 -26.12811 -54.34251 9841 ft 298 kts 358°
2026-04-26 16:19 -26.09372 -54.34007 8846 ft 294 kts 358°
2026-04-26 16:20 -26.06955 -54.33842 8232 ft 288 kts 358°
2026-04-26 16:20 -26.03037 -54.33572 7454 ft 279 kts 359°
2026-04-26 16:20 -26.01089 -54.33441 7083 ft 282 kts 359°
2026-04-26 16:21 -25.99123 -54.33309 6711 ft 284 kts 359°
2026-04-26 16:21 -25.97152 -54.33177 6431 ft 283 kts 359°
2026-04-26 16:21 -25.95197 -54.33044 5974 ft 279 kts 360°
2026-04-26 16:21 -25.93319 -54.32907 5810 ft 261 kts 360°
2026-04-26 16:22 -25.91558 -54.32779 5605 ft 250 kts
2026-04-26 16:22 -25.89837 -54.32652 5411 ft 246 kts
2026-04-26 16:22 -25.88182 -54.32165 5197 ft 249 kts 19°
2026-04-26 16:22 -25.86557 -54.31368 4757 ft 256 kts 21°
2026-04-26 16:23 -25.84949 -54.30552 4380 ft 250 kts 21°
2026-04-26 16:23 -25.83420 -54.29771 4246 ft 233 kts 18°
2026-04-26 16:23 -25.81893 -54.29595 3995 ft 211 kts 332°
2026-04-26 16:23 -25.80777 -54.30502 4219 ft 207 kts 300°
2026-04-26 16:24 -25.80128 -54.31936 3909 ft 212 kts 293°
2026-04-26 16:24 -25.79713 -54.32961 3563 ft 220 kts 293°
2026-04-26 16:24 -25.79061 -54.34549 3103 ft 230 kts 293°
2026-04-26 16:24 -25.78409 -54.36117 2776 ft 227 kts 293°
2026-04-26 16:25 -25.77759 -54.37676 2474 ft 219 kts 293°
2026-04-26 16:25 -25.76939 -54.39642 2115 ft 204 kts 291°
2026-04-26 16:25 -25.76543 -54.40591 1954 ft 195 kts 292°
2026-04-26 16:25 -25.75999 -54.41895 1713 ft 176 kts 294°
2026-04-26 16:26 -25.75509 -54.43071 1487 ft 160 kts 295°
2026-04-26 16:26 -25.75058 -54.44155 1286 ft 150 kts 294°
2026-04-26 16:26 -25.74674 -54.45081 1115 ft 146 kts 294°
2026-04-26 16:26 -25.74247 -54.46105 937 ft 143 kts 295°
2026-04-26 16:27 -25.73881 -54.46981 929 ft 103 kts 295°
2026-04-26 16:27 -25.73653 -54.47526 928 ft 53 kts 295°
2026-04-26 16:27 -25.73517 -54.47851 929 ft 43 kts 295°
2026-04-26 16:27 -25.73388 -54.48049 930 ft 25 kts 322°
2026-04-26 16:28 -25.73298 -54.48109 930 ft 13 kts 344°
2026-04-26 16:28 -25.73238 -54.48064 931 ft 9 kts 74°
2026-04-26 16:28 -25.73233 -54.47990 927 ft 10 kts 83°
2026-04-26 16:28 -25.73225 -54.47914 932 ft 10 kts 84°
2026-04-26 16:29 -25.73219 -54.47835 927 ft 10 kts 86°
2026-04-26 16:29 -25.73242 -54.47760 930 ft 8 kts 116°
2026-04-26 16:29 -25.73246 -54.47752 929 ft 1 kts 116°
2026-04-26 16:29 -25.73249 -54.47745 929 ft 1 kts 116°
2026-04-26 16:30 -25.73254 -54.47733 930 ft 2 kts 107°
2026-04-26 16:30 -25.73248 -54.47725 928 ft 2 kts 57°
2026-04-26 16:30 -25.73228 -54.47718 928 ft 4 kts 19°
2026-04-26 16:30 -25.73205 -54.47706 927 ft 0 kts 26°